Regional Weather Roundup
Issued by NWS Raleigh/Durham, NC

Home | Current Version | Previous Version | Text Only | Print | Product List | Glossary On
Versions: 1 2 3 4 5 6 7 8 9 10 11 12 13 14 15 16 17 18 19 20 21 22 23 24 25 26 27 28 29 30 31 32 33 34 35 36 37 38 39 40 41 42 43 44 45 46 47 48 49 50
000
ASUS42 KRAH 230810
RWRRAH
NORTH CAROLINA WEATHER ROUNDUP
NATIONAL WEATHER SERVICE RALEIGH NC
400 AM EDT SAT MAY 23 2015

NOTE: "FAIR" INDICATES FEW OR NO CLOUDS BELOW 12,000 FEET WITH NO
SIGNIFICANT WEATHER AND/OR OBSTRUCTIONS TO VISIBILITY.

NCZ001-053-055-056-065-067-230900-
WESTERN NORTH CAROLINA

CITY           SKY/WX    TMP DP  RH WIND       PRES   REMARKS
ASHEVILLE      CLEAR     47  41  80 CALM      30.35R
JEFFERSON      PTCLDY    46  38  72 CALM      30.37R
MORGANTON      CLEAR     43  42  95 CALM      30.37R
HICKORY        CLEAR     52  45  77 CALM      30.32R
RUTHERFORDTON  CLEAR     51  44  77 CALM      30.33R
MOUNT AIRY     MOCLDY    52  45  77 CALM      30.35S
BOONE          PTCLDY    40  40 100 CALM      30.38S
$$

NCZ021-022-025-041-071-084-088-230900-
CENTRAL NORTH CAROLINA

CITY           SKY/WX    TMP DP  RH WIND       PRES   REMARKS
CHARLOTTE      FAIR      54  44  69 CALM      30.32R
GREENSBORO     PTCLDY    54  48  80 CALM      30.31S
WINSTON-SALEM  MOCLDY    54  44  69 CALM      30.33R
RALEIGH-DURHAM PTCLDY    52  48  86 CALM      30.31R
FORT BRAGG     CLEAR     53  52  95 CALM      30.29R
FAYETTEVILLE   CLEAR     54  50  86 CALM      30.30R
BURLINGTON     PTCLDY    51  47  86 CALM      30.31S
LAURINBURG     CLEAR     50  47  89 CALM      30.30S
$$

NCZ011-015-027-028-043-044-047-080-103-230900-
NORTHEASTERN NORTH CAROLINA

CITY           SKY/WX    TMP DP  RH WIND       PRES   REMARKS
ROCKY MT-WILSO CLEAR     52  50  93 CALM      30.30R
GREENVILLE     CLEAR     54  54 100 CALM      30.30R
WASHINGTON     CLEAR     54  51  92 CALM      30.29S
ELIZABETH CITY CLEAR     59  52  77 W6        30.27R
MANTEO         CLEAR     64  57  78 W6        30.28S
CAPE HATTERAS  CLEAR     50  47  89 W3        30.28R
$$

NCZ078-087-090-091-093-098-101-230900-
SOUTHEASTERN NORTH CAROLINA

CITY           SKY/WX    TMP DP  RH WIND       PRES   REMARKS
LUMBERTON      CLEAR     50  49  96 CALM      30.29R
GOLDSBORO      CLEAR     53  51  90 CALM      30.28R
KINSTON        CLEAR     49  49  97 CALM      30.30S
KENANSVILLE    CLEAR     48  48  97 CALM      30.31R
NEW BERN       CLEAR     53  50  89 CALM      30.31R
CHERRY POINT   CLEAR     53  50  89 CALM      30.30R
BEAUFORT       CLEAR     55  54  96 CALM      30.29R
JACKSONVILLE   CLEAR     53  51  93 CALM      30.29R
WILMINGTON     CLEAR     55  54  96 CALM      30.28S
$$



USA.gov is the U.S. government's official web portal to all federal, state and local government web resources and services.